Lake Travis Weather Center

Moon Phase Calendar



Lake Travis Water Level
Online Cameras

 


      

Current Conditions in Lago Vista
6/29/2022 1:02:27 AM

75°F
Feels Like 75
Clear
Humidity
67%
Pressure
30.12"
Wind
3.4 mph (NE)
Dew Point
63°F
UV Index
0/10 (Low)
Visibility
6 mi

Hourly Forecast

Date & Time Wed, Jun 29
1:00 AM
Wed, Jun 29
2:00 AM
Wed, Jun 29
3:00 AM
Wed, Jun 29
4:00 AM
Wed, Jun 29
5:00 AM
Wed, Jun 29
6:00 AM
Wed, Jun 29
7:00 AM
Wed, Jun 29
8:00 AM
Wed, Jun 29
9:00 AM
Wed, Jun 29
10:00 AM
Wed, Jun 29
11:00 AM
Wed, Jun 29
12:00 PM
Wed, Jun 29
1:00 PM
Wed, Jun 29
2:00 PM
Wed, Jun 29
3:00 PM
Wed, Jun 29
4:00 PM
Wed, Jun 29
5:00 PM
Wed, Jun 29
6:00 PM
Wed, Jun 29
7:00 PM
Wed, Jun 29
8:00 PM
Wed, Jun 29
9:00 PM
Wed, Jun 29
10:00 PM
Wed, Jun 29
11:00 PM
Thu, Jun 30
12:00 AM
Thu, Jun 30
1:00 AM
Thu, Jun 30
2:00 AM
Thu, Jun 30
3:00 AM
Thu, Jun 30
4:00 AM
Thu, Jun 30
5:00 AM
Thu, Jun 30
6:00 AM
Thu, Jun 30
7:00 AM
Thu, Jun 30
8:00 AM
Thu, Jun 30
9:00 AM
Thu, Jun 30
10:00 AM
Thu, Jun 30
11:00 AM
Thu, Jun 30
12:00 PM
Thu, Jun 30
1:00 PM
Thu, Jun 30
2:00 PM
Thu, Jun 30
3:00 PM
Thu, Jun 30
4:00 PM
Thu, Jun 30
5:00 PM
Thu, Jun 30
6:00 PM
Thu, Jun 30
7:00 PM
Thu, Jun 30
8:00 PM
Thu, Jun 30
9:00 PM
Thu, Jun 30
10:00 PM
Thu, Jun 30
11:00 PM
Fri, Jul 1
12:00 AM
Condition
Clear

Clouds

Clouds

Clouds

Clouds

Clouds

Clouds

Clouds

Clouds

Clouds

Clouds

Clouds

Clouds

Clear

Clear

Clear

Clouds

Clouds

Clouds

Clouds

Clouds

Clouds

Clouds

Clouds

Clouds

Clouds

Clouds

Clouds

Clouds

Clouds

Clouds

Clouds

Clouds

Clouds

Clouds

Clouds

Clouds

Clouds

Clouds

Clouds

Clouds

Clouds

Clouds

Clouds

Clouds

Clouds

Clouds

Clouds
Temperature 75°F75°F74°F74°F73°F72°F71°F74°F78°F82°F85°F89°F91°F93°F94°F95°F94°F90°F87°F84°F80°F78°F77°F75°F74°F74°F73°F72°F72°F72°F72°F75°F79°F83°F86°F88°F90°F88°F88°F89°F87°F84°F83°F80°F77°F76°F75°F75°F
Feels Like 75°F75°F74°F74°F73°F71°F71°F74°F77°F82°F85°F88°F91°F92°F93°F94°F94°F91°F90°F86°F83°F79°F78°F76°F75°F75°F74°F73°F73°F73°F73°F76°F79°F85°F87°F90°F92°F89°F89°F90°F88°F86°F85°F82°F78°F77°F76°F76°F
Cloudiness 0%18%38%58%78%97%84%42%39%28%23%18%15%0%1%6%11%17%22%69%44%37%44%49%48%94%97%98%98%99%99%89%89%63%50%41%38%93%96%98%98%98%99%100%100%98%99%99%
Visibility 6 mi6 mi6 mi6 mi6 mi6 mi6 mi6 mi6 mi6 mi6 mi6 mi6 mi6 mi6 mi6 mi6 mi6 mi6 mi6 mi6 mi6 mi6 mi6 mi6 mi6 mi6 mi6 mi6 mi6 mi6 mi6 mi6 mi6 mi6 mi6 mi6 mi6 mi6 mi6 mi6 mi6 mi6 mi6 mi6 mi6 mi6 mi6 mi
Precipitation 0%0%0%0%0%0%0%0%0%0%0%0%0%0%0%0%0%0%0%0%0%0%0%0%0%0%0%0%0%0%0%0%0%0%1%1%1%0%0%0%0%0%0%0%0%0%0%0%
Humidity 67%63%61%58%56%54%55%54%46%44%43%39%36%33%31%30%32%43%50%57%64%70%78%81%81%82%82%83%84%84%83%76%64%55%50%46%43%44%43%43%47%53%54%61%66%70%74%79%
Dew Point 63°F61°F60°F58°F57°F54°F54°F56°F55°F58°F60°F61°F60°F59°F59°F59°F59°F64°F67°F67°F67°F68°F69°F69°F68°F68°F67°F67°F67°F67°F67°F67°F66°F65°F65°F65°F64°F63°F63°F63°F64°F65°F65°F65°F65°F65°F66°F68°F
Pressure 30.12"30.12"30.09"30.09"30.06"30.06"30.09"30.12"30.12"30.12"30.12"30.12"30.09"30.06"30.03"30"30"30"30"30"30.03"30.03"30.06"30.06"30.06"30.06"30.03"30.03"30.03"30.06"30.06"30.06"30.06"30.06"30.03"30.03"30"30"29.97"29.97"29.97"29.97"29.97"29.97"29.97"29.97"29.97"30"
Wind Speed 3.5 mph2.8 mph3.8 mph3.9 mph4.3 mph4.4 mph4.8 mph4.8 mph6.8 mph7.5 mph7.7 mph8 mph8.3 mph8.3 mph8.6 mph8.8 mph7 mph13 mph12.8 mph10.7 mph8 mph9 mph8.2 mph7.4 mph6.4 mph4.8 mph4.1 mph2.9 mph1.6 mph1 mph2.2 mph3.9 mph5.9 mph8.9 mph10.3 mph11 mph13.7 mph15 mph12.6 mph11.7 mph13.9 mph11.9 mph11.5 mph10.1 mph7.8 mph7.4 mph8.6 mph8.6 mph
Wind
Direction
60°
ENE
52°
NE
51°
NE
33°
NNE
20°
NNE
20°
NNE
18°
NNE
24°
NNE
41°
NE
49°
NE
57°
ENE
55°
NE
55°
NE
52°
NE
45°
NE
40°
NE
64°
ENE
147°
SSE
144°
SE
179°
S
162°
SSE
160°
SSE
167°
SSE
174°
S
176°
S
190°
S
196°
SSW
218°
SW
247°
WSW
292°
WNW
100°
E
110°
ESE
103°
ESE
113°
ESE
124°
SE
130°
SE
130°
SE
131°
SE
131°
SE
139°
SE
142°
SE
142°
SE
142°
SE
145°
SE
152°
SSE
145°
SE
138°
SE
141°
SE

Daily Forecast

Date High Low Precip. Humidity
Today
Jun 29

Clear
94 °F
70 °F
4%
36%
Thursday
Jun 30

Clouds
94 °F
73 °F
4%
37%
Friday
Jul 1

Rain
84 °F
71 °F
100%
69%
Saturday
Jul 2

Clouds
93 °F
74 °F
67%
45%
Sunday
Jul 3

Clear
96 °F
74 °F
0%
41%
Monday
Jul 4

Clouds
97 °F
73 °F
0%
40%
Tuesday
Jul 5

Clear
98 °F
74 °F
1%
39%
Wednesday
Jul 6

Clear
99 °F
75 °F
8%
38%
Thursday
Jul 7

Clouds
99 °F
75 °F
0%
35%
Friday
Jul 8

Rain
99 °F
76 °F
83%
37%
Saturday
Jul 9

Rain
96 °F
77 °F
69%
36%
Sunday
Jul 10

Rain
101 °F
74 °F
24%
34%
Monday
Jul 11

Rain
94 °F
77 °F
40%
35%
Tuesday
Jul 12

Clouds
102 °F
75 °F
4%
34%
Wednesday
Jul 13

Clouds
102 °F
74 °F
0%
32%
Thursday
Jul 14

Clear
103 °F
75 °F
0%
28%

Temperature 8-14 Day Outlook



Precipitation 8-14 Day Outlook






About Us
Contact Us
Site Map
Search Site
Advertise With Us
   
Travis.USLakes.info
THE LAKE TRAVIS WEBSITE

Copyright 2022, Lakes Online
Privacy    |    Legal